Date,TemperatureHighF,TemperatureAvgF,TemperatureLowF,DewpointHighF,DewpointAvgF,DewpointLowF,HumidityHigh,HumidityAvg,HumidityLow,PressureMaxIn,PressureMinIn,WindSpeedMaxMPH,WindSpeedAvgMPH,GustSpeedMaxMPH,PrecipitationSumIn
2013-1-1,34,27,20,25,17,12,73,66,57,30.17,30.01,18,7,18,0.00
2013-1-2,37,26,15,18,12,4,63,55,40,30.25,30.15,16,5,16,0.00
2013-1-3,36,26,17,15,9,6,62,48,38,30.24,30.05,18,6,18,0.00
2013-1-4,40,31,24,19,12,7,54,46,40,30.08,30.00,12,5,12,0.00
2013-1-5,41,30,25,21,16,11,66,55,44,30.20,30.04,13,4,13,0.00
2013-1-6,42,33,22,19,15,11,65,49,37,30.04,29.82,16,4,16,0.00
2013-1-7,44,35,26,24,20,14,67,53,43,29.89,29.63,17,3,17,0.00
2013-1-8,48,40,31,24,19,14,53,43,27,29.97,29.64,25,6,25,0.00
2013-1-9,56,44,31,27,23,16,58,44,29,29.95,29.67,16,4,16,0.00
2013-1-10,48,34,20,29,21,12,73,59,43,29.68,29.49,14,4,14,0.00
2013-1-11,20,13,10,11,7,4,79,74,65,30.06,29.68,10,3,10,0.00
2013-1-12,22,12,4,10,5,-3,76,71,59,30.08,30.03,10,3,10,0.00
2013-1-13,23,14,8,10,4,1,73,66,56,30.13,30.06,15,4,15,0.00
2013-1-14,22,15,9,8,4,1,70,62,50,30.09,29.95,17,7,17,0.00
2013-1-15,33,25,19,20,15,8,75,66,58,30.08,29.95,21,8,21,0.00
2013-1-16,46,34,26,26,20,16,66,55,45,30.25,30.03,17,6,17,0.07
2013-1-17,44,34,26,24,19,15,62,54,44,30.27,29.97,19,7,19,0.00
2013-1-18,56,39,34,23,19,17,51,45,22,29.98,29.85,18,6,18,0.00
2013-1-19,42,35,23,25,20,15,75,55,40,30.19,29.97,8,3,8,0.00
2013-1-20,34,24,17,20,15,9,72,67,57,30.38,30.05,8,3,8,0.00
2013-1-21,31,21,14,18,12,7,76,68,59,30.22,29.96,5,1,5,0.00
2013-1-22,48,37,13,24,18,7,77,48,38,30.03,29.96,13,3,13,0.00
2013-1-23,32,24,18,16,14,10,73,65,50,30.15,29.88,9,2,9,0.00
2013-1-24,54,36,20,29,20,13,76,56,34,30.05,29.81,20,3,20,0.00
2013-1-25,54,37,22,32,23,14,76,58,42,30.05,29.87,11,2,11,0.00
2013-1-26,56,43,34,31,26,21,63,51,38,29.88,29.66,9,2,9,0.00
2013-1-27,38,33,29,33,27,22,83,77,62,29.81,29.67,10,1,10,0.02
2013-1-28,39,31,24,28,21,14,84,68,42,29.81,29.69,16,3,16,0.01
2013-1-29,29,21,8,20,10,-1,72,63,51,30.12,29.68,12,3,12,0.00
2013-1-30,35,24,10,27,17,2,82,73,59,30.00,29.78,17,3,17,0.00
2013-1-31,30,18,4,23,10,-2,78,73,61,30.16,29.95,14,3,14,0.00
2013-2-1,48,38,30,33,27,23,75,64,47,30.14,29.93,14,6,14,0.03
2013-2-2,52,38,26,28,23,18,72,56,37,30.23,30.10,18,6,18,0.00
2013-2-3,54,40,32,27,21,17,64,48,24,30.10,29.86,18,5,18,0.00
2013-2-4,53,42,34,26,23,19,57,47,30,29.88,29.76,21,6,21,0.00
2013-2-5,53,42,32,30,25,21,65,52,40,29.91,29.70,11,4,11,0.00
2013-2-6,50,39,30,26,19,13,68,47,28,30.02,29.71,17,4,17,0.00
2013-2-7,48,35,25,24,19,14,70,55,38,30.04,29.86,7,1,7,0.00
2013-2-8,46,34,26,25,20,15,67,56,37,29.91,29.82,8,1,8,0.00
2013-2-9,45,32,20,28,21,13,78,64,45,29.87,29.74,9,2,9,0.00
2013-2-10,32,27,18,25,19,12,83,72,54,30.09,29.87,14,3,14,0.01
2013-2-11,36,24,13,19,13,7,80,64,48,30.06,29.88,16,6,16,0.00
2013-2-12,45,31,22,23,15,10,62,52,42,30.01,29.83,15,6,15,0.01
2013-2-13,50,37,30,34,23,15,79,60,38,30.09,29.82,26,6,26,0.01
2013-2-14,38,31,28,24,20,16,81,63,44,30.27,30.09,14,5,14,0.00
2013-2-15,46,34,27,32,24,21,81,69,49,30.29,30.08,17,4,17,0.02
2013-2-16,53,40,30,28,23,20,66,52,38,30.08,29.69,16,6,16,0.00
2013-2-17,47,39,32,28,23,18,70,55,33,29.93,29.63,18,6,18,0.00
2013-2-18,43,32,20,24,20,12,77,63,47,30.06,29.93,10,2,10,0.00
2013-2-19,34,23,15,21,15,9,80,71,59,29.98,29.74,6,1,6,0.00
2013-2-20,35,26,18,21,16,12,79,68,53,29.87,29.76,8,2,8,0.00
2013-2-21,41,30,23,27,21,16,79,68,50,29.92,29.83,12,2,12,0.03
2013-2-22,46,34,26,23,18,15,72,54,32,29.89,29.62,14,5,14,0.00
2013-2-23,41,35,30,31,23,15,81,61,40,29.94,29.56,14,4,14,0.02
2013-2-24,45,34,25,24,20,16,73,57,39,30.10,29.93,12,4,12,0.00
2013-2-25,51,38,27,23,18,14,61,46,28,29.96,29.75,17,5,17,0.00
2013-2-26,47,37,28,22,17,14,60,46,29,30.16,29.85,17,5,17,0.00
2013-2-27,49,35,22,22,17,12,68,49,28,30.18,30.08,14,4,14,0.00
2013-2-28,50,38,31,24,17,14,52,43,28,30.20,30.09,15,4,15,0.00
2013-3-1,64,45,30,31,24,14,54,44,29,30.19,30.09,14,6,14,0.00
2013-3-2,66,50,39,32,28,24,57,44,26,30.14,29.83,12,4,12,0.00
2013-3-3,56,36,28,34,25,15,86,63,43,29.83,29.52,25,4,25,0.00
2013-3-4,33,25,15,16,13,6,71,61,45,30.28,29.83,21,6,21,0.00
2013-3-5,37,22,8,22,12,1,75,67,52,30.26,30.00,7,1,7,0.01
2013-3-6,38,28,16,26,19,10,78,69,58,30.00,29.70,6,1,6,0.01
2013-3-7,56,40,28,32,24,16,78,57,21,29.99,29.74,13,3,13,0.01
2013-3-8,48,38,31,30,26,22,73,61,46,29.98,29.82,5,2,5,0.00
2013-3-9,50,37,25,27,19,12,81,53,28,30.18,29.88,14,3,14,0.00
2013-3-10,60,41,19,26,18,10,74,43,21,30.17,29.93,12,4,12,0.00
2013-3-11,48,40,32,26,21,15,57,48,32,30.23,29.93,13,5,13,0.00
2013-3-12,53,37,24,26,21,16,74,54,32,30.24,29.98,7,2,7,0.00
2013-3-13,71,52,33,31,25,18,57,38,21,30.06,29.98,17,6,17,0.00
2013-3-14,72,60,40,35,28,24,55,32,19,30.09,29.87,20,3,20,0.00
2013-3-15,68,53,37,31,26,18,61,37,16,30.03,29.83,21,5,21,0.00
2013-3-16,52,37,27,30,24,20,76,61,41,30.03,29.65,10,2,11,0.00
2013-3-17,46,35,23,30,18,7,81,53,21,29.89,29.46,26,6,26,0.00
2013-3-18,46,30,15,19,10,5,68,46,19,29.93,29.77,27,4,27,0.00
2013-3-19,42,31,25,25,18,14,74,58,41,30.22,29.93,7,2,7,0.01
2013-3-20,59,38,17,26,18,9,72,49,26,30.14,29.54,6,1,6,0.00
2013-3-21,50,41,31,31,18,7,76,43,20,29.86,29.52,21,5,21,0.00
2013-3-22,38,28,20,26,14,4,80,58,38,30.09,29.83,9,2,11,0.06
2013-3-23,38,26,15,12,9,5,71,50,27,30.20,30.09,15,3,15,0.02
2013-3-24,36,24,12,14,8,3,70,52,29,30.25,30.16,10,2,10,0.00
2013-3-25,53,31,10,19,9,0,69,43,21,30.22,29.97,10,1,10,0.00
2013-3-26,60,41,26,25,14,6,48,35,24,29.98,29.89,11,2,11,0.00
2013-3-27,67,46,23,27,19,9,59,36,18,29.99,29.88,13,2,13,0.00
2013-3-28,47,37,32,24,18,16,56,46,34,30.03,29.95,6,1,6,0.00
2013-3-31,61,52,38,28,23,18,45,33,27,30.09,30.03,16,4,16,0.00
2013-4-1,62,45,25,30,22,14,66,42,25,30.11,30.01,14,2,14,0.00
2013-4-2,73,51,28,31,23,15,62,37,17,30.05,29.86,10,2,10,0.00
2013-4-3,72,56,43,32,27,19,51,33,21,30.07,29.86,14,4,14,0.00
2013-4-4,59,48,36,32,28,23,63,48,36,30.06,29.78,10,2,10,0.00
2013-4-5,64,53,44,44,34,28,64,49,34,29.78,29.68,20,4,20,0.03
2013-4-6,69,50,39,37,31,26,61,49,23,29.83,29.71,12,3,12,0.01
2013-4-7,69,51,37,40,36,32,83,59,31,29.78,29.54,8,2,8,0.35
2013-4-8,36,26,22,31,20,17,87,80,73,30.24,29.69,9,4,9,0.01
2013-4-9,35,27,20,20,16,13,82,66,48,30.36,30.24,3,1,3,0.14
2013-4-10,54,36,17,30,21,10,76,56,40,30.24,29.77,5,2,5,0.00
2013-4-11,59,48,37,34,29,22,70,50,30,29.89,29.73,15,6,15,0.00
2013-4-12,56,45,36,32,26,21,71,50,28,30.02,29.69,8,3,8,0.00
2013-4-13,54,42,37,37,31,22,81,66,47,29.69,29.39,17,4,17,0.12
2013-4-14,41,34,25,29,22,18,78,63,45,29.92,29.58,17,6,17,0.01
2013-4-15,39,30,21,25,20,15,79,67,51,30.08,29.91,8,2,8,0.01
2013-4-16,35,28,23,23,20,16,80,71,57,30.22,30.02,11,2,11,0.01
2013-4-17,40,29,18,26,20,12,83,71,51,30.24,30.19,11,1,11,0.01
2013-4-18,59,41,22,30,21,16,82,52,22,30.19,30.02,17,4,17,0.00
2013-4-19,61,50,38,39,29,22,74,46,27,30.03,29.77,15,4,15,0.04
2013-4-20,55,44,37,39,34,29,75,69,50,29.85,29.79,11,2,11,0.00
2013-4-25,71,63,51,26,23,20,37,23,16,29.94,29.78,15,3,15,0.00
2013-4-26,80,63,43,35,27,20,51,29,12,30.08,29.93,12,3,12,0.00
2013-4-27,81,67,51,34,26,21,40,24,12,30.03,29.78,21,5,21,0.00
2013-4-28,72,63,54,38,31,23,45,31,23,29.97,29.73,19,3,19,0.00
2013-4-29,71,53,44,41,31,14,58,43,21,29.74,29.48,26,6,26,0.00
2013-4-30,52,42,31,31,19,14,56,41,24,30.20,29.73,16,5,16,0.00
2013-5-1,59,42,27,25,19,15,67,43,21,30.49,30.20,8,2,8,0.00
2013-5-2,71,54,34,30,22,18,63,33,15,30.52,30.19,13,4,13,0.00
2013-5-3,71,56,45,41,27,17,75,35,18,30.19,30.06,12,4,12,0.01
2013-5-4,66,53,46,45,39,32,79,61,38,30.21,30.15,13,2,13,0.00
2013-5-5,74,57,36,41,32,27,71,43,23,30.18,29.98,8,1,8,0.00
2013-5-6,80,63,39,38,31,22,55,32,18,30.02,29.85,10,2,10,0.00
2013-5-7,87,67,43,41,32,27,57,31,15,29.94,29.80,11,2,11,0.00
2013-5-8,76,64,48,41,38,30,57,39,26,30.12,29.93,9,3,9,0.00
2013-5-9,81,64,45,45,39,32,64,42,23,30.12,30.03,11,2,11,0.00
2013-5-10,74,62,50,44,36,24,62,39,23,30.33,30.08,13,4,13,0.00
2013-5-11,86,65,39,38,31,21,51,31,17,30.34,30.02,8,1,8,0.00
2013-5-12,95,77,60,44,37,28,41,26,8,30.05,29.87,20,3,20,0.00
2013-5-13,99,81,65,47,39,30,39,26,10,29.97,29.68,20,3,20,0.00
2013-5-14,87,72,56,47,36,27,57,30,15,29.93,29.70,9,2,9,0.00
2013-5-15,82,68,49,40,30,20,37,25,17,30.00,29.81,5,2,5,0.00
2013-5-16,76,65,54,50,47,40,77,55,34,29.87,29.77,13,2,13,0.00
2013-5-17,67,59,53,55,50,47,83,74,60,29.87,29.81,6,1,6,0.00
2013-5-18,63,57,52,54,51,47,86,81,70,29.90,29.85,6,1,6,0.00
2013-5-19,56,53,51,51,49,47,87,85,81,30.01,29.88,10,3,10,0.00
2013-5-20,69,58,50,50,43,27,86,62,21,30.11,30.00,14,4,14,0.00
2013-5-21,76,60,44,48,40,33,79,51,25,30.08,29.90,11,2,11,0.00
2013-5-22,70,57,46,48,43,38,80,62,44,29.95,29.84,12,3,12,0.00
2013-5-23,76,62,53,52,47,43,81,59,39,29.91,29.67,11,3,11,0.00
2013-5-24,79,64,52,50,40,30,82,47,18,29.92,29.70,17,3,17,0.00
2013-5-25,82,66,46,45,40,34,66,40,24,29.90,29.80,8,2,8,0.00
2013-5-26,85,66,51,58,48,38,69,53,33,29.96,29.78,9,1,9,0.00
2013-5-27,76,61,52,52,48,44,79,63,37,29.87,29.75,16,2,16,0.00
2013-5-28,80,62,48,53,46,42,83,60,32,29.76,29.66,8,1,8,0.00
2013-5-29,61,55,53,52,49,48,85,81,65,29.72,29.64,9,2,9,0.00
2013-5-30,56,53,50,49,47,44,87,81,69,29.81,29.62,19,5,19,0.00
2013-5-31,58,52,49,44,42,40,82,70,55,30.17,29.79,19,7,19,0.00
2013-6-1,79,64,48,52,45,42,82,54,29,30.20,30.02,9,1,9,0.00
2013-6-2,84,68,53,54,48,42,73,52,30,30.02,29.64,9,2,9,0.00
2013-6-3,64,55,46,51,42,36,79,62,40,30.03,29.68,25,8,25,0.00
2013-6-4,63,51,42,43,39,35,78,64,46,30.22,30.03,8,2,8,0.00
2013-6-5,78,61,38,47,40,32,83,51,26,30.21,29.99,6,1,6,0.00
2013-6-6,87,69,48,52,46,38,71,46,25,30.03,29.98,7,2,7,0.00
2013-6-7,95,74,53,57,49,41,77,46,19,29.98,29.67,12,2,12,0.00
2013-6-8,84,72,62,48,45,41,56,40,24,29.92,29.73,13,3,13,0.00
2013-6-9,96,76,53,52,48,42,72,41,20,29.92,29.66,8,2,8,0.00
2013-6-10,85,71,55,53,48,43,65,47,26,29.88,29.74,8,2,8,0.00
2013-6-11,87,69,57,64,55,50,79,62,41,30.00,29.76,18,2,18,0.00
2013-6-12,77,66,54,60,55,48,83,70,54,30.06,29.89,11,1,11,0.00
2013-6-13,87,71,56,60,55,49,80,59,38,29.98,29.74,23,3,23,0.00
2013-6-14,74,64,52,49,41,33,77,48,25,30.03,29.90,22,5,22,0.00
2013-6-15,91,70,46,45,39,33,69,37,17,30.05,29.91,11,2,11,0.00
2013-6-16,76,59,51,50,42,39,67,55,40,30.05,29.97,5,1,5,0.00
2013-6-21,81,68,54,50,46,39,70,47,30,30.02,29.92,10,2,10,0.00
2013-6-22,79,61,54,54,49,43,78,64,39,30.02,29.90,12,2,12,0.00
2013-6-23,88,70,49,50,46,42,76,47,23,29.94,29.73,9,2,9,0.00
2013-6-24,91,75,55,58,51,43,68,45,28,29.73,29.56,21,1,21,0.00
2013-6-25,93,79,64,56,48,39,70,37,17,29.83,29.62,13,2,13,0.00
2013-6-26,91,78,66,57,49,44,66,39,23,30.06,29.83,14,2,14,0.00
2013-6-27,98,80,61,62,56,51,77,48,24,30.18,30.06,8,2,8,0.07
2013-6-28,99,82,61,60,54,49,66,41,23,30.22,30.10,7,1,7,0.00
2013-6-29,94,80,64,61,56,51,74,46,29,30.17,29.99,17,2,17,0.04
2013-6-30,96,80,61,65,59,54,78,51,31,30.11,30.03,7,1,7,0.03
2013-7-1,98,83,64,62,56,52,66,43,25,30.17,30.10,6,1,6,0.00
2013-7-2,102,85,63,62,55,49,68,40,22,30.13,29.93,6,1,6,0.00
2013-7-3,104,85,66,63,52,44,60,37,16,29.93,29.82,9,2,9,0.00
2013-7-4,96,82,70,67,60,52,68,49,27,29.93,29.76,10,2,10,0.00
2013-7-5,90,75,64,62,57,55,75,55,34,29.84,29.74,11,1,11,0.01
2013-7-6,89,76,62,60,55,51,73,50,29,30.00,29.80,11,2,11,0.00
2013-7-7,92,75,60,61,55,50,74,52,29,29.96,29.84,11,1,11,0.07
2013-7-8,96,75,60,61,56,50,76,56,30,30.03,29.78,16,1,16,0.18
2013-7-9,88,76,60,64,56,51,81,55,32,30.13,30.03,8,2,8,0.00
2013-7-10,103,92,73,61,51,42,57,27,14,30.07,29.85,8,2,8,0.00
2013-7-11,103,84,68,61,49,41,55,32,16,29.85,29.72,13,2,13,0.00
2013-7-12,99,84,68,57,51,43,55,35,17,29.90,29.78,9,2,9,0.01
2013-7-13,93,76,62,59,54,49,67,49,29,30.18,29.83,10,2,10,0.02
2013-7-14,91,76,59,56,52,47,71,46,29,30.18,30.00,11,2,11,0.00
2013-7-15,104,84,60,63,53,42,74,41,16,30.01,29.83,8,1,8,0.00
2013-7-16,74,69,63,53,50,44,68,51,41,30.21,30.12,6,1,6,0.00
2013-7-17,68,62,60,58,54,51,78,74,68,30.17,30.13,2,0,2,0.00
2013-7-22,101,92,74,58,46,30,36,23,8,29.95,29.79,8,2,8,0.00
2013-7-23,97,80,61,58,49,40,59,36,20,30.08,29.95,8,2,8,0.00
2013-7-24,101,82,62,60,50,44,62,38,17,30.08,29.87,13,1,13,0.00
2013-7-25,89,76,62,56,53,49,65,46,30,30.16,29.95,13,3,13,0.01
2013-7-26,89,73,55,56,50,44,66,47,33,30.22,30.01,10,3,10,0.00
2013-7-27,96,77,60,57,49,40,57,39,20,30.05,29.82,21,1,21,0.00
2013-7-28,72,67,62,54,50,47,61,53,46,29.87,29.82,3,0,3,0.00
2013-7-31,92,84,62,59,52,46,73,36,21,30.20,30.03,6,1,7,0.02
2013-8-1,89,73,64,59,52,47,70,50,32,30.04,29.74,21,2,21,0.02
2013-8-2,78,64,60,60,55,53,81,73,51,29.97,29.89,8,2,8,0.09
2013-8-3,84,76,64,62,58,53,68,55,45,30.06,29.96,8,2,8,0.00
2013-8-4,88,72,58,62,57,51,79,61,34,30.07,29.95,6,2,6,0.00
2013-8-6,88,78,67,49,47,44,44,34,24,30.02,29.94,8,1,8,0.00
2013-8-7,94,74,56,55,49,43,65,44,21,30.03,29.88,9,1,9,0.00
2013-8-8,71,61,55,54,49,46,73,65,54,30.05,30.00,4,0,4,0.00
2013-8-10,77,74,72,54,52,51,49,46,44,30.03,29.98,4,1,4,0.00
2013-8-11,92,76,60,59,52,46,62,45,27,30.06,29.98,6,1,6,0.00
2013-8-12,94,77,60,57,52,48,66,45,26,30.11,29.97,10,2,10,0.00
2013-8-13,80,68,60,52,46,14,63,47,10,30.11,30.02,6,1,6,0.00
2013-8-14,82,71,65,46,39,-19,49,33,3,30.07,29.98,8,1,8,0.00
2013-8-15,108,70,60,79,34,-19,82,31,1,30.05,29.96,4,0,4,0.00
2013-8-16,139,85,70,62,33,-20,39,17,1,29.98,29.86,5,1,5,0.00
2013-8-17,97,81,65,53,46,40,43,31,20,29.99,29.86,5,1,6,0.00
2013-8-18,96,81,67,56,50,45,51,35,24,30.02,29.89,7,1,7,0.00
2013-8-19,103,83,65,54,45,31,50,30,7,29.99,29.82,13,2,13,0.00
2013-8-20,99,82,63,49,41,35,42,26,12,29.96,29.83,5,1,5,0.00
2013-8-21,88,78,65,50,45,41,45,33,23,30.07,29.90,10,2,10,0.00
2013-8-22,81,69,62,56,49,46,56,49,40,30.10,30.04,4,1,4,0.00
2013-9-8,83,74,63,65,60,53,78,62,51,29.97,29.79,12,2,12,0.00
2013-9-9,80,69,58,54,50,48,76,55,34,30.00,29.89,9,2,11,0.00
2013-9-10,86,70,56,55,48,43,72,49,24,30.09,30.00,9,1,9,0.00
2013-9-11,85,74,58,54,50,44,62,43,31,30.24,30.07,7,1,7,0.00
2013-9-12,88,74,59,57,51,46,62,46,31,30.25,30.02,9,1,9,0.00
2013-9-13,84,70,58,60,54,49,73,58,41,30.02,29.80,8,1,8,0.00
2013-9-14,69,65,62,63,59,53,84,81,75,30.08,29.88,5,1,5,0.00
2013-9-15,81,67,58,62,55,50,77,66,48,30.14,29.96,8,2,8,0.00
2013-9-16,88,70,54,63,55,49,83,61,36,29.96,29.77,7,1,7,0.00
2013-9-17,66,62,59,54,52,51,78,72,64,29.79,29.75,3,0,3,0.00
2013-9-26,46,46,46,36,36,36,68,68,68,29.95,29.95,3,2,3,0.00
2013-9-27,57,51,43,42,39,35,83,65,53,29.94,29.85,11,3,11,0.00
2013-9-28,69,54,42,42,38,35,76,56,36,29.89,29.77,13,4,13,0.00
2013-9-29,74,60,50,42,39,36,60,47,28,29.77,29.56,18,4,18,0.00
2013-9-30,71,54,45,47,36,25,75,54,29,29.79,29.48,25,5,25,0.00
2013-10-1,70,56,41,38,33,26,62,43,31,29.93,29.79,26,2,26,0.00
2013-10-2,63,53,45,38,35,31,73,52,33,30.06,29.92,8,2,8,0.00
2013-10-3,48,40,35,40,35,31,87,83,68,30.24,29.90,11,3,11,0.00
2013-10-4,47,39,34,33,31,27,87,73,53,30.38,30.23,8,2,8,0.00
2013-10-5,58,43,31,39,31,25,78,64,43,30.28,30.13,14,4,14,0.00
2013-10-6,68,53,41,41,36,30,66,53,35,30.15,29.98,12,4,12,0.00
2013-10-7,68,55,42,45,39,33,73,55,38,29.98,29.67,10,2,10,0.00
2013-10-8,65,53,42,41,37,33,72,55,37,29.93,29.67,8,1,10,0.00
2013-10-9,59,47,38,42,36,31,79,67,52,30.04,29.85,7,1,7,0.00
2013-10-10,59,49,38,45,41,32,83,73,59,29.85,29.68,5,1,5,0.00
2013-10-11,53,46,37,41,37,30,81,72,46,30.01,29.76,10,2,10,0.00
2013-10-12,56,42,30,40,33,25,84,71,50,30.08,30.00,3,1,3,0.00
2013-10-13,46,41,34,39,33,28,86,74,63,30.11,30.07,3,1,3,0.00
2013-10-14,48,42,38,37,34,30,86,75,51,30.32,30.11,5,2,5,0.00
2013-10-15,54,42,34,38,32,29,84,69,47,30.32,30.05,6,2,6,0.00
2013-10-16,40,38,37,29,28,27,69,67,64,30.05,29.99,10,5,10,0.00
2013-11-3,34,33,33,23,22,21,64,63,62,29.87,29.85,8,3,8,0.00
2013-11-4,38,33,29,28,24,20,78,69,60,30.05,29.87,6,1,6,0.00
2013-11-5,43,33,28,29,23,19,82,69,46,30.08,29.95,9,2,9,0.00
2013-11-6,51,39,30,30,24,20,68,55,37,30.24,29.98,20,3,20,0.00
2013-11-7,51,41,29,34,28,20,71,60,50,30.24,29.61,10,1,10,0.00
2013-11-8,53,47,40,36,27,24,71,48,34,29.98,29.59,27,8,27,0.00
2013-11-9,50,40,33,27,24,21,66,52,39,30.16,29.98,10,1,10,0.00
2013-11-10,48,37,28,32,26,21,76,65,49,30.25,30.05,11,2,11,0.00
2013-11-11,33,25,18,24,19,13,80,76,69,30.44,30.24,8,1,8,0.00
2013-11-12,56,38,17,41,26,12,85,64,40,30.41,30.10,13,2,13,0.00
2013-11-13,59,51,42,38,32,24,58,48,39,30.11,29.98,16,3,16,0.00
2013-11-14,50,40,32,32,26,22,70,58,47,30.06,29.69,9,1,9,0.00
2013-11-15,51,38,27,28,22,20,76,55,31,29.69,29.36,21,4,21,0.00
2013-11-16,50,41,36,32,27,22,67,59,44,29.50,29.26,20,2,20,0.00
2013-11-17,47,38,30,28,22,16,66,53,33,29.92,29.50,20,4,20,0.00
2013-11-18,60,39,25,31,23,17,73,55,28,29.90,29.71,11,1,11,0.00
2013-11-19,62,49,34,32,27,18,60,44,32,29.71,29.55,12,3,12,0.00
2013-11-20,33,18,9,18,10,2,78,69,55,30.33,29.70,15,3,15,0.00
2013-11-21,23,13,0,12,4,-7,75,69,61,30.45,30.31,18,3,18,0.00
2013-11-22,35,24,17,18,11,6,69,57,48,30.50,30.35,16,4,16,0.00
2013-11-23,39,27,17,20,12,6,63,53,42,30.49,30.08,14,4,14,0.00
2013-11-24,47,35,27,24,18,12,62,50,39,30.10,29.96,17,4,17,0.00
2013-11-25,44,33,25,27,21,17,76,63,49,30.28,30.09,7,1,7,0.00
2013-11-26,46,35,26,30,24,19,77,65,49,30.30,29.97,14,2,14,0.00
2013-11-27,47,44,41,26,25,23,52,46,43,30.03,29.95,17,6,17,0.00
2013-12-5,1,-6,-12,-6,-13,-18,73,71,69,30.26,30.14,3,0,3,0.00
2013-12-6,1,-9,-15,-8,-17,-22,75,69,62,30.37,30.25,7,1,7,0.00
2013-12-7,-6,-14,-18,-14,-21,-25,73,71,67,30.35,29.99,2,0,2,0.00
2013-12-8,10,2,-13,1,-7,-20,71,67,64,30.02,29.89,16,6,16,0.00
2013-12-10,31,23,13,22,16,7,78,74,63,30.24,29.91,20,4,20,0.00
2013-12-11,31,23,10,18,13,4,82,66,57,30.21,30.08,13,3,13,0.00
2013-12-12,44,34,29,26,21,17,62,57,48,30.10,29.85,15,4,15,0.00
2013-12-13,44,37,32,32,26,20,69,64,60,30.12,29.84,12,4,12,0.00
2013-12-14,44,37,28,30,25,19,72,63,53,30.12,29.96,27,7,27,0.00
2013-12-15,50,42,36,30,27,24,63,56,42,29.97,29.86,22,4,22,0.00
2013-12-16,51,39,32,31,26,22,70,58,43,30.20,29.93,11,2,11,0.00
2013-12-17,50,38,24,29,24,18,82,60,43,30.19,29.75,17,4,17,0.00
2013-12-18,47,40,28,30,26,23,84,58,43,29.80,29.69,13,4,13,0.00
2013-12-19,28,10,-3,23,3,-10,82,73,63,30.12,29.80,13,2,13,0.00
2013-12-20,29,19,-2,16,10,-8,81,67,55,29.90,29.53,13,4,13,0.00
2013-12-21,36,26,16,27,18,10,79,73,68,29.95,29.53,7,1,7,0.00
2013-12-22,19,11,-3,11,5,-10,81,76,68,30.22,29.94,6,1,6,0.00
2013-12-23,39,19,-3,32,12,-10,80,72,64,30.22,29.75,16,4,16,0.00
2013-12-24,43,37,31,34,26,19,84,64,50,30.24,29.85,24,8,24,0.00
2013-12-25,38,32,24,24,19,14,69,60,50,30.27,30.00,18,6,18,0.00
2013-12-26,45,39,32,28,24,19,61,54,50,30.12,29.98,20,6,20,0.00
2013-12-27,52,44,38,31,27,25,60,52,44,30.06,29.80,18,5,18,0.00
2013-12-28,44,26,13,28,13,3,68,58,50,30.31,29.78,18,3,18,0.00
2013-12-29,37,26,13,25,15,5,76,64,53,30.27,29.84,14,4,14,0.00
2013-12-30,45,38,32,28,25,20,66,59,51,30.10,29.92,14,3,14,0.00
2013-12-31,36,35,34,30,30,29,84,82,79,30.01,29.95,8,3,8,0.00
2014-1-1,42,32,26,32,26,20,84,78,67,30.24,29.99,11,2,11,0.00
2014-1-2,40,33,23,26,23,17,82,68,57,30.14,29.72,18,6,18,0.00